MZN2QA ESSA-EFHK

Flight info

Callsign MZN2QA
Flight time 0h 38m
Altitude 29000
Route TOVRI N851 RIKUM DCT RIRIP Y364 LAKUT
Aircraft B738/M-SDE2E3FGHIRWXY/LB1

Departure

Time 2026-04-23 18:46
Airport Stockholm-Arlanda Airport (ESSA)

Arrival

Time 2026-04-23 19:24
Airport Helsinki Vantaa Airport (EFHK)
Time Latitude Longitude Altitude Speed Heading
2026-04-23 18:14 59.63970 17.92691 111 ft 0 kts 207°
2026-04-23 18:34 59.63979 17.92700 111 ft 2 kts 210°
2026-04-23 18:34 59.63993 17.92718 111 ft 2 kts 216°
2026-04-23 18:35 59.64006 17.92739 109 ft 2 kts 224°
2026-04-23 18:35 59.64017 17.92763 111 ft 2 kts 240°
2026-04-23 18:35 59.64023 17.92794 109 ft 2 kts 265°
2026-04-23 18:35 59.64021 17.92826 109 ft 2 kts 289°
2026-04-23 18:36 59.64017 17.92846 111 ft 1 kts 297°
2026-04-23 18:36 59.64017 17.92847 109 ft 0 kts 297°
2026-04-23 18:38 59.64020 17.92834 109 ft 3 kts 301°
2026-04-23 18:38 59.64042 17.92798 111 ft 5 kts 341°
2026-04-23 18:38 59.64074 17.92802 111 ft 5 kts 20°
2026-04-23 18:38 59.64104 17.92828 111 ft 5 kts 27°
2026-04-23 18:39 59.64134 17.92860 110 ft 6 kts 28°
2026-04-23 18:39 59.64175 17.92883 111 ft 6 kts 354°
2026-04-23 18:39 59.64207 17.92813 112 ft 8 kts 299°
2026-04-23 18:39 59.64243 17.92678 111 ft 14 kts 296°
2026-04-23 18:40 59.64295 17.92480 111 ft 19 kts 297°
2026-04-23 18:40 59.64360 17.92233 113 ft 21 kts 297°
2026-04-23 18:40 59.64468 17.92118 112 ft 20 kts
2026-04-23 18:40 59.64601 17.92168 111 ft 19 kts
2026-04-23 18:41 59.64730 17.92213 111 ft 19 kts 10°
2026-04-23 18:41 59.64855 17.92258 111 ft 18 kts 10°
2026-04-23 18:41 59.64975 17.92302 109 ft 17 kts 10°
2026-04-23 18:41 59.65091 17.92344 111 ft 17 kts 10°
2026-04-23 18:42 59.65218 17.92393 111 ft 21 kts 14°
2026-04-23 18:42 59.65352 17.92529 110 ft 22 kts 38°
2026-04-23 18:42 59.65445 17.92757 111 ft 21 kts 62°
2026-04-23 18:42 59.65494 17.93023 110 ft 17 kts 72°
2026-04-23 18:43 59.65571 17.93156 109 ft 16 kts
2026-04-23 18:43 59.65602 17.93200 108 ft 3 kts 64°
2026-04-23 18:43 59.65612 17.93245 108 ft 4 kts 65°
2026-04-23 18:43 59.65632 17.93309 108 ft 8 kts 54°
2026-04-23 18:44 59.65678 17.93404 108 ft 11 kts 45°
2026-04-23 18:44 59.65737 17.93522 111 ft 12 kts 46°
2026-04-23 18:44 59.65798 17.93645 115 ft 12 kts 45°
2026-04-23 18:44 59.65855 17.93764 114 ft 12 kts 54°
2026-04-23 18:45 59.65874 17.93876 117 ft 0 kts 76°
2026-04-23 18:45 59.65876 17.93888 117 ft 8 kts 76°
2026-04-23 18:45 59.65953 17.94494 121 ft 84 kts 76°
2026-04-23 18:46 59.66154 17.96067 120 ft 151 kts 75°
2026-04-23 18:46 59.66428 17.98246 668 ft 162 kts 75°
2026-04-23 18:46 59.66688 18.00351 1583 ft 157 kts 71°
2026-04-23 18:46 59.66981 18.02543 2260 ft 164 kts 69°
2026-04-23 18:47 59.67248 18.04763 3038 ft 166 kts 71°
2026-04-23 18:47 59.67504 18.07059 3613 ft 181 kts 70°
2026-04-23 18:47 59.67803 18.09710 3889 ft 210 kts 71°
2026-04-23 18:47 59.68135 18.12682 4089 ft 232 kts 72°
2026-04-23 18:48 59.68489 18.15920 4448 ft 246 kts 72°
2026-04-23 18:48 59.68862 18.19340 4794 ft 263 kts 72°
2026-04-23 18:48 59.69256 18.22946 5343 ft 273 kts 72°
2026-04-23 18:48 59.69653 18.26623 6138 ft 277 kts 72°
2026-04-23 18:49 59.70032 18.30147 6924 ft 278 kts 72°
2026-04-23 18:49 59.70455 18.33891 7766 ft 277 kts 68°
2026-04-23 18:49 59.71180 18.37396 8585 ft 274 kts 58°
2026-04-23 18:49 59.72057 18.40749 9427 ft 275 kts 56°
2026-04-23 18:50 59.72657 18.42968 9957 ft 276 kts 56°
2026-04-23 18:50 59.73909 18.47607 10479 ft 300 kts 57°
2026-04-23 18:50 59.74920 18.51411 10666 ft 323 kts 57°
2026-04-23 18:50 59.75975 18.55446 10842 ft 344 kts 58°
2026-04-23 18:51 59.77083 18.59765 11232 ft 356 kts 58°
2026-04-23 18:51 59.78202 18.64188 11865 ft 361 kts 58°
2026-04-23 18:51 59.79329 18.68676 12587 ft 363 kts 58°
2026-04-23 18:51 59.80458 18.73189 13291 ft 367 kts 58°
2026-04-23 18:52 59.81601 18.77771 13969 ft 371 kts 58°
2026-04-23 18:52 59.82689 18.82459 14641 ft 378 kts 63°
2026-04-23 18:52 59.83460 18.87495 15373 ft 383 kts 68°
2026-04-23 18:52 59.84156 18.92638 16061 ft 386 kts 68°
2026-04-23 18:53 59.84854 18.97830 16720 ft 390 kts 68°
2026-04-23 18:53 59.85562 19.03051 17369 ft 393 kts 68°
2026-04-23 18:53 59.86039 19.06537 17798 ft 395 kts 67°
2026-04-23 18:53 59.86767 19.11825 18413 ft 398 kts 67°
2026-04-23 18:54 59.87506 19.17160 18964 ft 401 kts 67°
2026-04-23 18:54 59.88251 19.22534 19535 ft 403 kts 66°
2026-04-23 18:54 59.88999 19.27935 20109 ft 406 kts 66°
2026-04-23 18:54 59.89755 19.33391 20648 ft 408 kts 66°
2026-04-23 18:55 59.90512 19.38874 21170 ft 411 kts 66°
2026-04-23 18:55 59.91262 19.44320 21684 ft 414 kts 66°
2026-04-23 18:55 59.92023 19.49871 22194 ft 417 kts 66°
2026-04-23 18:55 59.92789 19.55473 22686 ft 419 kts 66°
2026-04-23 18:56 59.93556 19.61107 23177 ft 422 kts 66°
2026-04-23 18:56 59.94325 19.66776 23630 ft 425 kts 65°
2026-04-23 18:56 59.95097 19.72488 24019 ft 428 kts 65°
2026-04-23 18:56 59.95872 19.78243 24412 ft 430 kts 66°
2026-04-23 18:57 59.96647 19.84023 24800 ft 432 kts 66°
2026-04-23 18:57 59.97423 19.89827 25183 ft 435 kts 66°
2026-04-23 18:57 59.98204 19.95691 25541 ft 437 kts 66°
2026-04-23 18:57 59.98988 20.01601 25895 ft 440 kts 66°
2026-04-23 18:58 59.99762 20.07460 26238 ft 442 kts 66°
2026-04-23 18:58 60.00549 20.13438 26551 ft 445 kts 66°
2026-04-23 18:58 60.01335 20.19436 26934 ft 446 kts 66°
2026-04-23 18:58 60.02122 20.25464 26928 ft 448 kts 66°
2026-04-23 18:59 60.02902 20.31484 26947 ft 445 kts 66°
2026-04-23 18:59 60.03676 20.37488 26958 ft 443 kts 66°
2026-04-23 18:59 60.04444 20.43452 26965 ft 443 kts 66°
2026-04-23 18:59 60.05213 20.49434 26961 ft 444 kts 66°
2026-04-23 19:00 60.05972 20.55354 26952 ft 444 kts 66°
2026-04-23 19:00 60.06737 20.61342 26952 ft 444 kts 66°
2026-04-23 19:00 60.07499 20.67345 26954 ft 444 kts 66°
2026-04-23 19:00 60.08259 20.73350 26953 ft 444 kts 66°
2026-04-23 19:01 60.09016 20.79361 26944 ft 444 kts 66°
2026-04-23 19:01 60.09769 20.85363 26947 ft 444 kts 66°
2026-04-23 19:01 60.10519 20.91366 26948 ft 444 kts 66°
2026-04-23 19:01 60.11267 20.97373 26949 ft 444 kts 66°
2026-04-23 19:02 60.12010 21.03373 26954 ft 444 kts 66°
2026-04-23 19:02 60.12753 21.09388 26950 ft 443 kts 66°
2026-04-23 19:02 60.13490 21.15388 26949 ft 443 kts 66°
2026-04-23 19:02 60.14217 21.21324 26945 ft 443 kts 66°
2026-04-23 19:03 60.14948 21.27322 26943 ft 443 kts 66°
2026-04-23 19:03 60.15678 21.33334 26945 ft 442 kts 66°
2026-04-23 19:03 60.16405 21.39350 26939 ft 442 kts 66°
2026-04-23 19:03 60.17127 21.45346 26940 ft 442 kts 66°
2026-04-23 19:04 60.17847 21.51350 26940 ft 442 kts 66°
2026-04-23 19:04 60.18564 21.57350 26942 ft 442 kts 66°
2026-04-23 19:04 60.19279 21.63368 26942 ft 441 kts 66°
2026-04-23 19:04 60.19982 21.69302 26940 ft 441 kts 66°
2026-04-23 19:05 60.20689 21.75300 26940 ft 441 kts 66°
2026-04-23 19:05 60.21396 21.81324 26941 ft 441 kts 66°
2026-04-23 19:05 60.22098 21.87332 26935 ft 441 kts 66°
2026-04-23 19:05 60.22800 21.93355 26924 ft 441 kts 66°
2026-04-23 19:06 60.23499 21.99391 26919 ft 441 kts 66°
2026-04-23 19:06 60.24186 22.05348 26918 ft 441 kts 66°
2026-04-23 19:06 60.24880 22.11387 26830 ft 441 kts 66°
2026-04-23 19:06 60.25566 22.17401 26555 ft 436 kts 66°
2026-04-23 19:07 60.26240 22.23346 26312 ft 434 kts 66°
2026-04-23 19:07 60.26913 22.29288 26065 ft 433 kts 66°
2026-04-23 19:07 60.27570 22.35114 25521 ft 429 kts 66°
2026-04-23 19:07 60.28223 22.40948 25000 ft 423 kts 66°
2026-04-23 19:08 60.28865 22.46700 24431 ft 418 kts 66°
2026-04-23 19:08 60.29498 22.52390 23867 ft 415 kts 66°
2026-04-23 19:08 60.30128 22.58052 23256 ft 412 kts 66°
2026-04-23 19:08 60.30743 22.63610 22623 ft 409 kts 66°
2026-04-23 19:09 60.31356 22.69171 22034 ft 405 kts 67°
2026-04-23 19:09 60.31960 22.74687 21466 ft 401 kts 67°
2026-04-23 19:09 60.32556 22.80146 20912 ft 397 kts 67°
2026-04-23 19:09 60.33146 22.85568 20372 ft 393 kts 67°
2026-04-23 19:10 60.33730 22.90951 19826 ft 390 kts 68°
2026-04-23 19:10 60.34294 22.96323 19221 ft 391 kts 70°
2026-04-23 19:10 60.34479 23.01877 18422 ft 411 kts 83°
2026-04-23 19:10 60.34160 23.07693 17726 ft 420 kts 91°
2026-04-23 19:11 60.33664 23.13454 17213 ft 414 kts 91°
2026-04-23 19:11 60.33184 23.19128 16891 ft 404 kts 91°
2026-04-23 19:11 60.32726 23.24610 16772 ft 388 kts 91°
2026-04-23 19:11 60.32288 23.29900 16680 ft 374 kts 90°
2026-04-23 19:12 60.32009 23.33298 16620 ft 366 kts 90°
2026-04-23 19:12 60.31471 23.39854 16452 ft 341 kts 90°
2026-04-23 19:12 60.31093 23.44486 16121 ft 331 kts 89°
2026-04-23 19:12 60.30725 23.49063 15574 ft 329 kts 89°
2026-04-23 19:13 60.30367 23.53541 15034 ft 327 kts 90°
2026-04-23 19:13 60.30003 23.58052 14539 ft 324 kts 90°
2026-04-23 19:13 60.29638 23.62518 14062 ft 320 kts 90°
2026-04-23 19:13 60.29274 23.66937 13573 ft 318 kts 91°
2026-04-23 19:14 60.28911 23.71318 13040 ft 315 kts 91°
2026-04-23 19:14 60.28552 23.75651 12155 ft 323 kts 92°
2026-04-23 19:14 60.28175 23.80220 11336 ft 328 kts 92°
2026-04-23 19:14 60.27799 23.84696 10717 ft 326 kts 93°
2026-04-23 19:15 60.27417 23.89186 10200 ft 321 kts 94°
2026-04-23 19:15 60.27040 23.93584 9647 ft 317 kts 94°
2026-04-23 19:15 60.26667 23.97950 9019 ft 315 kts 94°
2026-04-23 19:15 60.26296 24.02275 8434 ft 311 kts 94°
2026-04-23 19:16 60.25929 24.06538 7840 ft 308 kts 95°
2026-04-23 19:16 60.25563 24.10771 7290 ft 304 kts 95°
2026-04-23 19:16 60.25206 24.14895 6753 ft 304 kts 96°
2026-04-23 19:17 60.24483 24.23186 6302 ft 292 kts 96°
2026-04-23 19:17 60.24134 24.27142 6210 ft 281 kts 96°
2026-04-23 19:17 60.23797 24.30968 5910 ft 274 kts 96°
2026-04-23 19:17 60.23472 24.34664 5467 ft 273 kts 96°
2026-04-23 19:18 60.23140 24.38424 5034 ft 273 kts 97°
2026-04-23 19:18 60.22811 24.42140 4607 ft 272 kts 97°
2026-04-23 19:18 60.22480 24.45860 4356 ft 266 kts 97°
2026-04-23 19:18 60.22154 24.49498 4067 ft 260 kts 97°
2026-04-23 19:19 60.21536 24.56373 3641 ft 236 kts 97°
2026-04-23 19:19 60.21251 24.59521 3445 ft 228 kts 97°
2026-04-23 19:20 60.20820 24.65831 3004 ft 228 kts 78°
2026-04-23 19:20 60.21494 24.68601 2805 ft 219 kts 45°
2026-04-23 19:20 60.22518 24.70872 2581 ft 220 kts 46°
2026-04-23 19:20 60.23510 24.73177 2375 ft 213 kts 45°
2026-04-23 19:21 60.24461 24.75302 2187 ft 196 kts 45°
2026-04-23 19:21 60.26195 24.79130 1714 ft 173 kts 44°
2026-04-23 19:21 60.26971 24.80845 1483 ft 160 kts 45°
2026-04-23 19:22 60.27687 24.82425 1253 ft 148 kts 45°
2026-04-23 19:22 60.28366 24.83923 1044 ft 142 kts 45°
2026-04-23 19:22 60.29692 24.86849 647 ft 143 kts 46°
2026-04-23 19:23 60.30357 24.88315 460 ft 143 kts 46°
2026-04-23 19:23 60.31029 24.89794 253 ft 146 kts 45°
2026-04-23 19:23 60.31694 24.91266 149 ft 133 kts 46°
2026-04-23 19:24 60.32573 24.93202 177 ft 57 kts 47°
2026-04-23 19:24 60.32858 24.93827 181 ft 69 kts 47°
2026-04-23 19:24 60.33045 24.94587 183 ft 0 kts 93°
2026-04-23 19:25 60.33042 24.94731 179 ft 12 kts 92°
2026-04-23 19:25 60.33108 24.95023 177 ft 12 kts 87°
2026-04-23 19:26 60.33172 24.95317 178 ft 12 kts 48°
2026-04-23 19:26 60.33209 24.95461 181 ft 12 kts 91°
2026-04-23 19:27 60.33075 24.95760 180 ft 16 kts 141°
2026-04-23 19:27 60.32778 24.96113 172 ft 17 kts 150°
2026-04-23 19:28 60.32583 24.96341 172 ft 16 kts 150°
2026-04-23 19:28 60.32403 24.96552 174 ft 14 kts 151°
2026-04-23 19:29 60.32308 24.96658 167 ft 18 kts 150°
2026-04-23 19:29 60.32127 24.96804 166 ft 13 kts 180°
2026-04-23 19:30 60.32000 24.96640 166 ft 3 kts 226°
2026-04-23 19:30 60.31983 24.96605 166 ft 3 kts 226°
2026-04-23 19:30 60.31957 24.96532 166 ft 3 kts 270°
2026-04-23 19:31 60.31972 24.96494 166 ft 4 kts 315°
2026-04-23 19:31 60.31983 24.96473 166 ft 0 kts 316°